Tracking 29892 objects as of 21-Nov-2024
HD Live streaming from Space Station
objects crossing your sky now

COSMOS 1275 DEB

Track COSMOS 1275 DEB now!
10-day predictions


NORAD ID: 12656
Int'l Code: 1981-053L
Perigee: 912.3 km
Apogee: 948.0 km
Inclination: 83.0 °
Period: 103.5 minutes
Semi major axis: 7301 km
RCS: 0.194 m2 (medium)
Launch date: June 4, 1981
Source: Commonwealth of Independent States (former USSR) (CIS)
Launch site: PLESETSK MISSILE AND SPACE COMPLEX (PKMTR)

Note: This is SATELLITE DEBRIS
Your satellite tracking list
Your tracking list is empty




NASA's NSSDC Master Catalog

Two Line Element Set (TLE):
1 12656U 81053L   24325.93039150  .00001013  00000-0  78504-3 0  9995
2 12656  82.9587 128.4884 0024425 287.7660 226.1120 13.91614346188839
Source of the keplerian elements: AFSPC